Location: Piolenc
(44.1794°N, 4.7641°E)
Time: 03:31:00
(UTC+00:00)

deb Chang Zheng 4 - Pass Details

Date: 27 January 2021
Orbit: 599 x 623 km, 98.6° (Epoch: 27 February)

Event Time Altitude Azimuth Distance (km) Brightness Sun altitude
Rises 05:45:02 0° 4° (N) 2,868 6.9 -14.2°
Reaches altitude 10° 05:47:24 10° 354° (N) 1,957 5.9 -13.8°
Maximum altitude 05:51:08 31° 293° (WNW) 1,062 4.2 -13.2°
Drops below altitude 10° 05:54:51 10° 230° (SW) 1,938 5.8 -12.5°
Sets 05:57:10 0° 220° (SW) 2,835 6.7 -12.1°
